Time,TemperatureF,DewpointF,PressureIn,WindDirection,WindDirectionDegrees,WindSpeedMPH,WindSpeedGustMPH,Humidity,HourlyPrecipIn,Conditions,Clouds,dailyrainin,SoftwareType,DateUTC
2012-06-18 00:00:00,51.7,47.0,29.83,West,271,1.0,14.0,84,0.00,,,0.10,WUHU216DAVISVP2,2012-06-18 07:00:00,
2012-06-18 00:05:00,51.6,46.9,29.83,WSW,243,1.0,9.0,84,0.00,,,0.00,WUHU216DAVISVP2,2012-06-18 07:05:00,
2012-06-18 00:10:00,51.6,46.9,29.83,SW,218,4.0,9.0,84,0.00,,,0.00,WUHU216DAVISVP2,2012-06-18 07:10:00,
2012-06-18 00:15:00,51.6,46.9,29.83,South,186,1.0,10.0,84,0.00,,,0.00,WUHU216DAVISVP2,2012-06-18 07:15:00,
2012-06-18 00:20:00,51.5,46.8,29.82,West,267,1.0,13.0,84,0.00,,,0.00,WUHU216DAVISVP2,2012-06-18 07:20:00,
2012-06-18 00:25:00,51.5,46.8,29.82,SW,236,0.0,13.0,84,0.00,,,0.00,WUHU216DAVISVP2,2012-06-18 07:25:00,
2012-06-18 00:30:00,51.5,46.5,29.82,WNW,288,5.0,12.0,83,0.00,,,0.00,WUHU216DAVISVP2,2012-06-18 07:30:00,
2012-06-18 00:35:00,51.5,46.8,29.82,WSW,240,3.0,12.0,84,0.00,,,0.00,WUHU216DAVISVP2,2012-06-18 07:35:00,
2012-06-18 00:40:00,51.5,46.8,29.82,SW,228,4.0,10.0,84,0.00,,,0.00,WUHU216DAVISVP2,2012-06-18 07:40:00,
2012-06-18 00:45:00,51.4,46.4,29.82,WSW,249,3.0,10.0,83,0.00,,,0.00,WUHU216DAVISVP2,2012-06-18 07:45:00,
2012-06-18 00:50:00,51.4,46.7,29.82,SW,218,4.0,9.0,84,0.00,,,0.00,WUHU216DAVISVP2,2012-06-18 07:50:00,
2012-06-18 00:55:00,51.3,46.6,29.81,WSW,255,2.0,8.0,84,0.00,,,0.00,WUHU216DAVISVP2,2012-06-18 07:55:00,
2012-06-18 01:00:00,51.3,46.6,29.81,WSW,246,10.0,10.0,84,0.00,,,0.00,WUHU216DAVISVP2,2012-06-18 08:00:00,
2012-06-18 01:05:00,51.3,46.6,29.81,SSW,194,3.0,10.0,84,0.00,,,0.00,WUHU216DAVISVP2,2012-06-18 08:05:00,
2012-06-18 01:10:00,51.3,46.6,29.81,West,263,0.0,10.0,84,0.00,,,0.00,WUHU216DAVISVP2,2012-06-18 08:10:00,
2012-06-18 01:15:00,51.3,46.6,29.81,SE,131,2.0,10.0,84,0.00,,,0.00,WUHU216DAVISVP2,2012-06-18 08:15:00,
2012-06-18 01:20:00,51.3,46.6,29.81,SW,236,1.0,10.0,84,0.00,,,0.00,WUHU216DAVISVP2,2012-06-18 08:20:00,
2012-06-18 01:25:00,51.3,46.9,29.81,WNW,293,1.0,8.0,85,0.00,,,0.00,WUHU216DAVISVP2,2012-06-18 08:25:00,
2012-06-18 01:30:00,51.3,47.2,29.81,SW,232,0.0,7.0,86,0.00,,,0.00,WUHU216DAVISVP2,2012-06-18 08:30:00,
2012-06-18 01:35:00,51.2,47.1,29.81,WSW,238,1.0,7.0,86,0.00,,,0.00,WUHU216DAVISVP2,2012-06-18 08:35:00,
2012-06-18 01:40:00,51.1,47.3,29.80,SW,225,3.0,7.0,87,0.00,,,0.00,WUHU216DAVISVP2,2012-06-18 08:40:00,
2012-06-18 01:45:00,50.9,47.1,29.81,West,259,3.0,6.0,87,0.00,,,0.00,WUHU216DAVISVP2,2012-06-18 08:45:00,
2012-06-18 01:50:00,50.8,47.0,29.81,WSW,248,0.0,6.0,87,0.00,,,0.00,WUHU216DAVISVP2,2012-06-18 08:50:00,
2012-06-18 01:55:00,50.6,46.9,29.81,WSW,254,3.0,7.0,87,0.00,,,0.00,WUHU216DAVISVP2,2012-06-18 08:55:00,
2012-06-18 02:00:00,50.4,47.0,29.81,WSW,254,2.0,7.0,88,0.00,,,0.00,WUHU216DAVISVP2,2012-06-18 09:00:00,
2012-06-18 02:05:00,50.4,47.0,29.81,WSW,253,2.0,7.0,88,0.00,,,0.00,WUHU216DAVISVP2,2012-06-18 09:05:00,
2012-06-18 02:10:00,50.3,46.9,29.81,SW,236,0.0,10.0,88,0.00,,,0.00,WUHU216DAVISVP2,2012-06-18 09:10:00,
2012-06-18 02:15:00,50.3,46.9,29.81,West,262,2.0,10.0,88,0.00,,,0.00,WUHU216DAVISVP2,2012-06-18 09:15:00,
2012-06-18 02:20:00,50.3,46.9,29.81,WSW,257,2.0,10.0,88,0.00,,,0.00,WUHU216DAVISVP2,2012-06-18 09:20:00,
2012-06-18 02:25:00,50.3,46.9,29.81,SW,233,3.0,9.0,88,0.00,,,0.00,WUHU216DAVISVP2,2012-06-18 09:25:00,
2012-06-18 02:30:00,50.2,46.8,29.81,SW,226,0.0,9.0,88,0.00,,,0.00,WUHU216DAVISVP2,2012-06-18 09:30:00,
2012-06-18 02:35:00,50.2,46.8,29.81,West,269,2.0,7.0,88,0.00,,,0.00,WUHU216DAVISVP2,2012-06-18 09:35:00,
2012-06-18 02:40:00,50.1,47.0,29.81,SW,236,0.0,7.0,89,0.00,,,0.00,WUHU216DAVISVP2,2012-06-18 09:40:00,
2012-06-18 02:45:00,50.1,46.7,29.81,West,262,5.0,6.0,88,0.00,,,0.00,WUHU216DAVISVP2,2012-06-18 09:45:00,
2012-06-18 02:50:00,50.2,46.8,29.81,WSW,243,7.0,7.0,88,0.00,,,0.00,WUHU216DAVISVP2,2012-06-18 09:50:00,
2012-06-18 02:55:00,50.2,46.5,29.81,WSW,245,1.0,8.0,87,0.00,,,0.00,WUHU216DAVISVP2,2012-06-18 09:55:00,
2012-06-18 03:00:00,50.2,46.5,29.81,SW,224,1.0,8.0,87,0.00,,,0.00,WUHU216DAVISVP2,2012-06-18 10:00:00,
2012-06-18 03:05:00,50.2,46.5,29.80,West,263,1.0,7.0,87,0.01,,,0.01,WUHU216DAVISVP2,2012-06-18 10:05:00,
2012-06-18 03:10:00,50.2,46.8,29.80,NE,56,1.0,7.0,88,0.01,,,0.01,WUHU216DAVISVP2,2012-06-18 10:10:00,
2012-06-18 03:15:00,50.0,46.6,29.80,WSW,252,2.0,7.0,88,0.01,,,0.01,WUHU216DAVISVP2,2012-06-18 10:15:00,
2012-06-18 03:20:00,50.0,46.6,29.80,SSW,212,3.0,7.0,88,0.01,,,0.01,WUHU216DAVISVP2,2012-06-18 10:20:00,
2012-06-18 03:25:00,49.9,46.5,29.80,West,269,2.0,7.0,88,0.01,,,0.01,WUHU216DAVISVP2,2012-06-18 10:25:00,
2012-06-18 03:30:00,49.8,46.7,29.80,WSW,250,1.0,6.0,89,0.01,,,0.01,WUHU216DAVISVP2,2012-06-18 10:30:00,
2012-06-18 03:35:00,49.7,46.6,29.80,SW,225,1.0,6.0,89,0.01,,,0.01,WUHU216DAVISVP2,2012-06-18 10:35:00,
2012-06-18 03:40:00,49.6,46.7,29.80,West,263,2.0,6.0,90,0.01,,,0.01,WUHU216DAVISVP2,2012-06-18 10:40:00,
2012-06-18 03:45:00,49.5,46.7,29.80,West,267,1.0,9.0,90,0.02,,,0.02,WUHU216DAVISVP2,2012-06-18 10:45:00,
2012-06-18 03:50:00,49.4,46.8,29.80,South,175,0.0,9.0,91,0.02,,,0.02,WUHU216DAVISVP2,2012-06-18 10:50:00,
2012-06-18 03:55:00,49.3,46.7,29.80,SSW,205,4.0,9.0,91,0.02,,,0.02,WUHU216DAVISVP2,2012-06-18 10:55:00,
2012-06-18 04:00:00,49.3,46.7,29.80,SW,215,4.0,9.0,91,0.02,,,0.02,WUHU216DAVISVP2,2012-06-18 11:00:00,
2012-06-18 04:05:00,49.2,46.9,29.80,West,259,6.0,8.0,92,0.01,,,0.02,WUHU216DAVISVP2,2012-06-18 11:05:00,
2012-06-18 04:10:00,49.1,46.8,29.80,WSW,255,3.0,8.0,92,0.01,,,0.02,WUHU216DAVISVP2,2012-06-18 11:10:00,
2012-06-18 04:15:00,49.1,46.8,29.80,WSW,244,0.0,7.0,92,0.01,,,0.02,WUHU216DAVISVP2,2012-06-18 11:15:00,
2012-06-18 04:20:00,49.0,46.7,29.80,WSW,257,0.0,7.0,92,0.01,,,0.02,WUHU216DAVISVP2,2012-06-18 11:20:00,
2012-06-18 04:25:00,49.0,46.7,29.80,SW,233,2.0,6.0,92,0.01,,,0.02,WUHU216DAVISVP2,2012-06-18 11:25:00,
2012-06-18 04:30:00,49.0,47.0,29.80,SW,218,0.0,6.0,93,0.01,,,0.02,WUHU216DAVISVP2,2012-06-18 11:30:00,
2012-06-18 04:35:00,49.0,47.0,29.80,WSW,248,1.0,6.0,93,0.01,,,0.02,WUHU216DAVISVP2,2012-06-18 11:35:00,
2012-06-18 04:40:00,49.0,47.0,29.80,SW,225,1.0,6.0,93,0.01,,,0.02,WUHU216DAVISVP2,2012-06-18 11:40:00,
2012-06-18 04:45:00,49.0,47.0,29.80,South,191,3.0,5.0,93,0.00,,,0.02,WUHU216DAVISVP2,2012-06-18 11:45:00,
2012-06-18 04:50:00,49.0,47.0,29.80,SSW,204,2.0,5.0,93,0.00,,,0.02,WUHU216DAVISVP2,2012-06-18 11:50:00,
2012-06-18 04:55:00,49.1,46.8,29.80,WSW,242,1.0,9.0,92,0.00,,,0.02,WUHU216DAVISVP2,2012-06-18 11:55:00,
2012-06-18 05:00:00,49.1,46.8,29.79,SW,214,0.0,9.0,92,0.00,,,0.02,WUHU216DAVISVP2,2012-06-18 12:00:00,
2012-06-18 05:05:00,49.2,46.9,29.79,WSW,238,3.0,8.0,92,0.00,,,0.02,WUHU216DAVISVP2,2012-06-18 12:05:00,
2012-06-18 05:10:00,49.2,46.9,29.79,WNW,283,0.0,8.0,92,0.00,,,0.02,WUHU216DAVISVP2,2012-06-18 12:10:00,
2012-06-18 05:15:00,49.1,46.8,29.79,WSW,252,5.0,9.0,92,0.00,,,0.02,WUHU216DAVISVP2,2012-06-18 12:15:00,
2012-06-18 05:20:00,49.1,46.8,29.79,SSE,148,1.0,9.0,92,0.00,,,0.02,WUHU216DAVISVP2,2012-06-18 12:20:00,
2012-06-18 05:25:00,49.1,46.8,29.79,WSW,253,4.0,10.0,92,0.00,,,0.02,WUHU216DAVISVP2,2012-06-18 12:25:00,
2012-06-18 05:30:00,49.1,46.8,29.79,SW,235,4.0,10.0,92,0.00,,,0.02,WUHU216DAVISVP2,2012-06-18 12:30:00,
2012-06-18 05:35:00,49.1,46.8,29.79,WSW,246,5.0,10.0,92,0.00,,,0.02,WUHU216DAVISVP2,2012-06-18 12:35:00,
2012-06-18 05:40:00,49.2,46.9,29.79,SSW,207,4.0,10.0,92,0.00,,,0.02,WUHU216DAVISVP2,2012-06-18 12:40:00,
2012-06-18 05:45:00,49.2,46.9,29.79,SSW,194,2.0,9.0,92,0.00,,,0.02,WUHU216DAVISVP2,2012-06-18 12:45:00,
2012-06-18 05:50:00,49.2,46.9,29.79,SW,221,2.0,9.0,92,0.00,,,0.02,WUHU216DAVISVP2,2012-06-18 12:50:00,
2012-06-18 05:55:00,49.2,46.9,29.79,WSW,245,2.0,9.0,92,0.00,,,0.02,WUHU216DAVISVP2,2012-06-18 12:55:00,
2012-06-18 06:00:00,49.2,46.9,29.79,South,185,2.0,9.0,92,0.00,,,0.02,WUHU216DAVISVP2,2012-06-18 13:00:00,
2012-06-18 06:05:00,49.2,46.9,29.79,SW,226,3.0,8.0,92,0.00,,,0.02,WUHU216DAVISVP2,2012-06-18 13:05:00,
2012-06-18 06:10:00,49.2,46.9,29.80,SSW,197,1.0,9.0,92,0.00,,,0.02,WUHU216DAVISVP2,2012-06-18 13:10:00,
2012-06-18 06:15:00,49.2,46.9,29.80,SE,142,2.0,9.0,92,0.01,,,0.03,WUHU216DAVISVP2,2012-06-18 13:15:00,
2012-06-18 06:20:00,49.2,46.9,29.80,SE,142,3.0,8.0,92,0.01,,,0.03,WUHU216DAVISVP2,2012-06-18 13:20:00,
2012-06-18 06:25:00,49.2,46.6,29.80,SW,231,2.0,8.0,91,0.01,,,0.03,WUHU216DAVISVP2,2012-06-18 13:25:00,
2012-06-18 06:30:00,49.2,46.6,29.80,SW,214,2.0,9.0,91,0.01,,,0.03,WUHU216DAVISVP2,2012-06-18 13:30:00,
2012-06-18 06:35:00,49.2,46.9,29.80,SW,231,3.0,9.0,92,0.01,,,0.03,WUHU216DAVISVP2,2012-06-18 13:35:00,
2012-06-18 06:40:00,49.1,46.8,29.80,WSW,246,6.0,9.0,92,0.01,,,0.03,WUHU216DAVISVP2,2012-06-18 13:40:00,
2012-06-18 06:45:00,49.2,46.9,29.80,WSW,256,3.0,11.0,92,0.02,,,0.04,WUHU216DAVISVP2,2012-06-18 13:45:00,
2012-06-18 06:50:00,49.1,46.8,29.80,South,188,4.0,11.0,92,0.02,,,0.04,WUHU216DAVISVP2,2012-06-18 13:50:00,
2012-06-18 06:55:00,49.1,46.8,29.80,WSW,238,6.0,11.0,92,0.02,,,0.04,WUHU216DAVISVP2,2012-06-18 13:55:00,
2012-06-18 07:06:00,49.3,47.0,29.80,WSW,257,1.0,10.0,92,0.02,,,0.04,WUHU216DAVISVP2,2012-06-18 14:06:00,
2012-06-18 07:11:00,49.2,46.9,29.80,WSW,250,0.0,9.0,92,0.02,,,0.04,WUHU216DAVISVP2,2012-06-18 14:11:00,
2012-06-18 07:16:00,49.2,46.9,29.81,West,260,5.0,9.0,92,0.01,,,0.04,WUHU216DAVISVP2,2012-06-18 14:16:00,
2012-06-18 07:21:00,49.2,46.9,29.80,SW,217,4.0,9.0,92,0.01,,,0.04,WUHU216DAVISVP2,2012-06-18 14:21:00,
2012-06-18 07:26:00,49.3,47.0,29.80,SW,228,3.0,9.0,92,0.01,,,0.04,WUHU216DAVISVP2,2012-06-18 14:26:00,
2012-06-18 07:31:00,49.5,47.2,29.80,SSW,203,1.0,8.0,92,0.01,,,0.04,WUHU216DAVISVP2,2012-06-18 14:31:00,
2012-06-18 07:36:00,49.6,47.3,29.81,SSW,211,5.0,8.0,92,0.01,,,0.04,WUHU216DAVISVP2,2012-06-18 14:36:00,
2012-06-18 07:41:00,49.6,47.3,29.81,ENE,61,2.0,8.0,92,0.01,,,0.04,WUHU216DAVISVP2,2012-06-18 14:41:00,
2012-06-18 07:46:00,49.7,47.4,29.81,SW,218,3.0,8.0,92,0.00,,,0.04,WUHU216DAVISVP2,2012-06-18 14:46:00,
2012-06-18 07:51:00,49.7,47.4,29.82,SW,229,1.0,9.0,92,0.00,,,0.04,WUHU216DAVISVP2,2012-06-18 14:51:00,
2012-06-18 07:56:00,49.7,47.1,29.82,South,172,0.0,9.0,91,0.00,,,0.04,WUHU216DAVISVP2,2012-06-18 14:56:00,
2012-06-18 08:01:00,49.7,47.1,29.82,West,270,1.0,8.0,91,0.00,,,0.04,WUHU216DAVISVP2,2012-06-18 15:01:00,
2012-06-18 08:06:00,49.7,47.1,29.83,West,266,2.0,8.0,91,0.00,,,0.04,WUHU216DAVISVP2,2012-06-18 15:06:00,
2012-06-18 08:11:00,49.7,47.1,29.83,WSW,242,4.0,7.0,91,0.01,,,0.05,WUHU216DAVISVP2,2012-06-18 15:11:00,
2012-06-18 08:16:00,49.6,47.0,29.83,WSW,243,4.0,10.0,91,0.01,,,0.05,WUHU216DAVISVP2,2012-06-18 15:16:00,
2012-06-18 08:21:00,49.5,46.9,29.83,West,265,3.0,10.0,91,0.01,,,0.05,WUHU216DAVISVP2,2012-06-18 15:21:00,
2012-06-18 08:26:00,49.6,47.3,29.83,SSE,160,2.0,10.0,92,0.01,,,0.05,WUHU216DAVISVP2,2012-06-18 15:26:00,
2012-06-18 08:31:00,49.6,47.0,29.83,West,272,2.0,10.0,91,0.01,,,0.05,WUHU216DAVISVP2,2012-06-18 15:31:00,
2012-06-18 08:36:00,49.6,47.0,29.83,WSW,250,3.0,9.0,91,0.01,,,0.05,WUHU216DAVISVP2,2012-06-18 15:36:00,
2012-06-18 08:41:00,49.6,47.3,29.84,SSW,205,2.0,8.0,92,0.02,,,0.06,WUHU216DAVISVP2,2012-06-18 15:41:00,
2012-06-18 08:46:00,49.5,47.5,29.84,WSW,238,3.0,8.0,93,0.02,,,0.06,WUHU216DAVISVP2,2012-06-18 15:46:00,
2012-06-18 08:51:00,49.4,47.4,29.84,WSW,252,2.0,8.0,93,0.03,,,0.07,WUHU216DAVISVP2,2012-06-18 15:51:00,
2012-06-18 08:56:00,49.5,47.5,29.84,West,263,1.0,7.0,93,0.04,,,0.08,WUHU216DAVISVP2,2012-06-18 15:56:00,
2012-06-18 09:01:00,49.5,47.5,29.84,WSW,245,4.0,7.0,93,0.04,,,0.08,WUHU216DAVISVP2,2012-06-18 16:01:00,
2012-06-18 09:06:00,49.7,47.7,29.84,WSW,246,2.0,7.0,93,0.04,,,0.08,WUHU216DAVISVP2,2012-06-18 16:06:00,
2012-06-18 09:11:00,50.1,48.1,29.85,SW,214,2.0,7.0,93,0.03,,,0.08,WUHU216DAVISVP2,2012-06-18 16:11:00,
2012-06-18 09:16:00,50.2,48.2,29.85,West,264,2.0,8.0,93,0.03,,,0.08,WUHU216DAVISVP2,2012-06-18 16:16:00,
2012-06-18 09:21:00,50.3,48.3,29.85,SW,225,5.0,8.0,93,0.03,,,0.08,WUHU216DAVISVP2,2012-06-18 16:21:00,
2012-06-18 09:26:00,50.5,48.5,29.85,WSW,238,4.0,7.0,93,0.03,,,0.08,WUHU216DAVISVP2,2012-06-18 16:26:00,
2012-06-18 09:31:00,50.6,48.3,29.85,SW,234,0.0,8.0,92,0.03,,,0.08,WUHU216DAVISVP2,2012-06-18 16:31:00,
2012-06-18 09:36:00,50.7,48.4,29.85,WNW,298,1.0,8.0,92,0.03,,,0.08,WUHU216DAVISVP2,2012-06-18 16:36:00,
2012-06-18 09:41:00,50.7,48.1,29.86,WSW,243,2.0,9.0,91,0.02,,,0.08,WUHU216DAVISVP2,2012-06-18 16:41:00,
2012-06-18 09:46:00,50.5,47.6,29.86,West,259,8.0,9.0,90,0.02,,,0.08,WUHU216DAVISVP2,2012-06-18 16:46:00,
2012-06-18 09:51:00,50.2,47.6,29.86,WSW,248,6.0,12.0,91,0.01,,,0.08,WUHU216DAVISVP2,2012-06-18 16:51:00,
2012-06-18 09:56:00,50.1,47.8,29.86,NNW,330,2.0,12.0,92,0.00,,,0.08,WUHU216DAVISVP2,2012-06-18 16:56:00,
2012-06-18 10:01:00,49.9,47.6,29.87,West,259,3.0,12.0,92,0.02,,,0.10,WUHU216DAVISVP2,2012-06-18 17:01:00,
2012-06-18 10:06:00,49.8,47.8,29.87,West,277,2.0,12.0,93,0.02,,,0.10,WUHU216DAVISVP2,2012-06-18 17:06:00,
2012-06-18 10:11:00,49.7,47.7,29.87,WSW,240,0.0,12.0,93,0.03,,,0.11,WUHU216DAVISVP2,2012-06-18 17:11:00,
2012-06-18 10:16:00,49.6,47.6,29.87,SW,215,3.0,12.0,93,0.03,,,0.11,WUHU216DAVISVP2,2012-06-18 17:16:00,
2012-06-18 10:21:00,49.7,47.7,29.88,SW,214,1.0,10.0,93,0.04,,,0.12,WUHU216DAVISVP2,2012-06-18 17:21:00,
2012-06-18 10:26:00,49.9,48.2,29.88,WNW,290,0.0,10.0,94,0.04,,,0.12,WUHU216DAVISVP2,2012-06-18 17:26:00,
2012-06-18 10:31:00,50.1,48.1,29.88,West,274,2.0,6.0,93,0.04,,,0.12,WUHU216DAVISVP2,2012-06-18 17:31:00,
2012-06-18 10:36:00,50.2,48.2,29.88,SW,226,1.0,6.0,93,0.04,,,0.12,WUHU216DAVISVP2,2012-06-18 17:36:00,
2012-06-18 10:41:00,50.3,48.0,29.88,WNW,283,0.0,7.0,92,0.05,,,0.13,WUHU216DAVISVP2,2012-06-18 17:41:00,
2012-06-18 10:46:00,50.3,48.0,29.89,SW,225,2.0,7.0,92,0.05,,,0.13,WUHU216DAVISVP2,2012-06-18 17:46:00,
2012-06-18 10:51:00,50.3,48.0,29.89,SE,136,1.0,7.0,92,0.06,,,0.14,WUHU216DAVISVP2,2012-06-18 17:51:00,
2012-06-18 10:56:00,50.4,48.4,29.89,West,274,1.0,6.0,93,0.08,,,0.16,WUHU216DAVISVP2,2012-06-18 17:56:00,
2012-06-18 11:01:00,50.2,47.9,29.89,NW,325,0.0,5.0,92,0.10,,,0.20,WUHU216DAVISVP2,2012-06-18 18:01:00,
2012-06-18 11:06:00,50.2,48.2,29.89,NW,321,2.0,5.0,93,0.14,,,0.24,WUHU216DAVISVP2,2012-06-18 18:06:00,
2012-06-18 11:11:00,50.1,48.1,29.89,West,259,3.0,5.0,93,0.16,,,0.27,WUHU216DAVISVP2,2012-06-18 18:11:00,
2012-06-18 11:16:00,50.0,48.0,29.90,NNW,332,2.0,5.0,93,0.17,,,0.28,WUHU216DAVISVP2,2012-06-18 18:16:00,
2012-06-18 11:21:00,50.0,48.0,29.90,East,84,0.0,4.0,93,0.20,,,0.32,WUHU216DAVISVP2,2012-06-18 18:21:00,
2012-06-18 11:26:00,49.7,47.7,29.90,NE,48,0.0,4.0,93,0.23,,,0.35,WUHU216DAVISVP2,2012-06-18 18:26:00,
2012-06-18 11:31:00,49.8,47.8,29.90,SE,138,0.0,3.0,93,0.24,,,0.36,WUHU216DAVISVP2,2012-06-18 18:31:00,
2012-06-18 11:36:00,49.9,47.9,29.90,NE,46,1.0,3.0,93,0.26,,,0.38,WUHU216DAVISVP2,2012-06-18 18:36:00,
2012-06-18 11:41:00,50.0,48.3,29.90,NW,314,0.0,3.0,94,0.28,,,0.41,WUHU216DAVISVP2,2012-06-18 18:41:00,
2012-06-18 11:46:00,49.9,47.9,29.90,NNW,331,0.0,3.0,93,0.31,,,0.44,WUHU216DAVISVP2,2012-06-18 18:46:00,
2012-06-18 11:51:00,49.7,47.7,29.90,NE,39,0.0,3.0,93,0.33,,,0.47,WUHU216DAVISVP2,2012-06-18 18:51:00,
2012-06-18 11:56:00,49.8,48.1,29.91,ENE,58,1.0,3.0,94,0.34,,,0.50,WUHU216DAVISVP2,2012-06-18 18:56:00,
2012-06-18 12:01:00,49.8,47.8,29.91,NE,43,0.0,3.0,93,0.31,,,0.51,WUHU216DAVISVP2,2012-06-18 19:01:00,
2012-06-18 12:06:00,50.1,48.4,29.91,East,91,2.0,3.0,94,0.31,,,0.55,WUHU216DAVISVP2,2012-06-18 19:06:00,
2012-06-18 12:11:00,50.3,48.6,29.91,West,260,0.0,3.0,94,0.30,,,0.57,WUHU216DAVISVP2,2012-06-18 19:11:00,
2012-06-18 12:16:00,50.5,48.8,29.92,West,280,0.0,2.0,94,0.31,,,0.59,WUHU216DAVISVP2,2012-06-18 19:16:00,
2012-06-18 12:21:00,50.7,49.0,29.92,West,276,0.0,2.0,94,0.27,,,0.59,WUHU216DAVISVP2,2012-06-18 19:21:00,
2012-06-18 12:26:00,51.0,49.3,29.92,West,274,0.0,2.0,94,0.25,,,0.60,WUHU216DAVISVP2,2012-06-18 19:26:00,
2012-06-18 12:31:00,51.4,49.1,29.92,NE,48,1.0,2.0,92,0.24,,,0.60,WUHU216DAVISVP2,2012-06-18 19:31:00,
2012-06-18 12:36:00,51.4,48.8,29.92,NNW,333,0.0,4.0,91,0.23,,,0.61,WUHU216DAVISVP2,2012-06-18 19:36:00,
2012-06-18 12:41:00,51.6,49.3,29.92,WNW,300,2.0,4.0,92,0.20,,,0.61,WUHU216DAVISVP2,2012-06-18 19:41:00,
2012-06-18 12:46:00,51.6,49.3,29.92,NW,311,0.0,3.0,92,0.18,,,0.62,WUHU216DAVISVP2,2012-06-18 19:46:00,
2012-06-18 12:51:00,51.7,48.8,29.92,ESE,107,0.0,3.0,90,0.16,,,0.63,WUHU216DAVISVP2,2012-06-18 19:51:00,
2012-06-18 12:56:00,52.1,49.5,29.92,NW,319,1.0,2.0,91,0.13,,,0.63,WUHU216DAVISVP2,2012-06-18 19:56:00,
2012-06-18 13:01:00,52.6,50.0,29.92,NNW,329,0.0,2.0,91,0.12,,,0.63,WUHU216DAVISVP2,2012-06-18 20:01:00,
2012-06-18 13:06:00,53.0,50.1,29.92,NNW,330,0.0,2.0,90,0.08,,,0.63,WUHU216DAVISVP2,2012-06-18 20:06:00,
2012-06-18 13:11:00,53.9,49.8,29.92,WNW,293,0.0,2.0,86,0.06,,,0.63,WUHU216DAVISVP2,2012-06-18 20:11:00,
2012-06-18 13:16:00,54.1,50.9,29.93,West,266,0.0,2.0,89,0.04,,,0.63,WUHU216DAVISVP2,2012-06-18 20:16:00,
2012-06-18 13:21:00,54.3,50.5,29.93,WSW,239,0.0,3.0,87,0.05,,,0.64,WUHU216DAVISVP2,2012-06-18 20:21:00,
2012-06-18 13:26:00,54.2,50.7,29.93,SSW,200,0.0,3.0,88,0.04,,,0.64,WUHU216DAVISVP2,2012-06-18 20:26:00,
2012-06-18 13:31:00,53.8,49.7,29.93,SE,143,1.0,3.0,86,0.04,,,0.64,WUHU216DAVISVP2,2012-06-18 20:31:00,
2012-06-18 13:36:00,53.8,49.7,29.93,SE,143,0.0,3.0,86,0.03,,,0.64,WUHU216DAVISVP2,2012-06-18 20:36:00,
2012-06-18 13:41:00,54.0,49.6,29.93,WSW,245,0.0,2.0,85,0.03,,,0.64,WUHU216DAVISVP2,2012-06-18 20:41:00,
2012-06-18 13:46:00,54.3,50.8,29.93,ESE,120,0.0,2.0,88,0.02,,,0.64,WUHU216DAVISVP2,2012-06-18 20:46:00,
2012-06-18 13:51:00,54.5,50.4,29.93,SSE,161,3.0,5.0,86,0.01,,,0.64,WUHU216DAVISVP2,2012-06-18 20:51:00,
2012-06-18 13:56:00,54.5,50.4,29.93,SE,129,0.0,5.0,86,0.01,,,0.64,WUHU216DAVISVP2,2012-06-18 20:56:00,
2012-06-18 14:01:00,54.6,50.2,29.93,SSE,156,1.0,5.0,85,0.01,,,0.64,WUHU216DAVISVP2,2012-06-18 21:01:00,
2012-06-18 14:06:00,55.5,52.6,29.93,SSW,211,0.0,4.0,90,0.01,,,0.64,WUHU216DAVISVP2,2012-06-18 21:06:00,
2012-06-18 14:11:00,56.5,52.4,29.93,SE,143,1.0,4.0,86,0.01,,,0.64,WUHU216DAVISVP2,2012-06-18 21:11:00,
2012-06-18 14:16:00,57.9,53.1,29.93,SSE,167,1.0,4.0,84,0.01,,,0.64,WUHU216DAVISVP2,2012-06-18 21:16:00,
2012-06-18 14:21:00,58.0,52.2,29.93,SSW,211,0.0,6.0,81,0.00,,,0.64,WUHU216DAVISVP2,2012-06-18 21:21:00,
2012-06-18 14:26:00,58.3,52.2,29.93,SW,214,4.0,6.0,80,0.00,,,0.64,WUHU216DAVISVP2,2012-06-18 21:26:00,
2012-06-18 14:31:00,58.6,52.5,29.92,SE,139,0.0,7.0,80,0.00,,,0.64,WUHU216DAVISVP2,2012-06-18 21:31:00,
2012-06-18 14:36:00,58.3,50.9,29.93,WSW,245,0.0,7.0,76,0.00,,,0.64,WUHU216DAVISVP2,2012-06-18 21:36:00,
2012-06-18 14:41:00,57.8,50.4,29.93,SE,127,2.0,7.0,76,0.00,,,0.64,WUHU216DAVISVP2,2012-06-18 21:41:00,
2012-06-18 14:46:00,57.3,49.9,29.93,WSW,249,1.0,6.0,76,0.00,,,0.64,WUHU216DAVISVP2,2012-06-18 21:46:00,
2012-06-18 14:51:00,56.9,50.8,29.93,SW,221,0.0,6.0,80,0.00,,,0.64,WUHU216DAVISVP2,2012-06-18 21:51:00,
2012-06-18 14:56:00,56.7,51.0,29.93,WSW,248,0.0,5.0,81,0.01,,,0.65,WUHU216DAVISVP2,2012-06-18 21:56:00,
2012-06-18 15:01:00,56.2,51.1,29.93,WSW,243,0.0,5.0,83,0.01,,,0.65,WUHU216DAVISVP2,2012-06-18 22:01:00,
2012-06-18 15:06:00,55.8,51.0,29.93,SW,231,2.0,5.0,84,0.01,,,0.65,WUHU216DAVISVP2,2012-06-18 22:06:00,
2012-06-18 15:11:00,55.6,50.2,29.93,West,280,0.0,5.0,82,0.01,,,0.65,WUHU216DAVISVP2,2012-06-18 22:11:00,
2012-06-18 15:16:00,55.5,50.4,29.93,WSW,243,1.0,5.0,83,0.02,,,0.66,WUHU216DAVISVP2,2012-06-18 22:16:00,
2012-06-18 15:21:00,55.6,51.5,29.93,WSW,249,4.0,5.0,86,0.02,,,0.66,WUHU216DAVISVP2,2012-06-18 22:21:00,
2012-06-18 15:26:00,55.5,51.1,29.94,WSW,255,4.0,5.0,85,0.02,,,0.66,WUHU216DAVISVP2,2012-06-18 22:26:00,
2012-06-18 15:31:00,55.4,50.7,29.93,WSW,242,0.0,6.0,84,0.02,,,0.66,WUHU216DAVISVP2,2012-06-18 22:31:00,
2012-06-18 15:36:00,55.4,51.0,29.93,WSW,249,2.0,6.0,85,0.02,,,0.66,WUHU216DAVISVP2,2012-06-18 22:36:00,
2012-06-18 15:41:00,55.2,50.5,29.93,WSW,240,0.0,7.0,84,0.02,,,0.66,WUHU216DAVISVP2,2012-06-18 22:41:00,
2012-06-18 15:46:00,55.2,49.8,29.94,SW,235,0.0,7.0,82,0.02,,,0.66,WUHU216DAVISVP2,2012-06-18 22:46:00,
2012-06-18 15:51:00,55.3,50.6,29.94,ESE,118,0.0,6.0,84,0.02,,,0.66,WUHU216DAVISVP2,2012-06-18 22:51:00,
2012-06-18 15:56:00,55.2,50.8,29.94,SSW,205,3.0,6.0,85,0.01,,,0.66,WUHU216DAVISVP2,2012-06-18 22:56:00,
2012-06-18 16:01:00,55.1,51.0,29.94,SSE,155,4.0,6.0,86,0.01,,,0.66,WUHU216DAVISVP2,2012-06-18 23:01:00,
2012-06-18 16:06:00,54.8,50.4,29.94,SSE,158,4.0,6.0,85,0.02,,,0.67,WUHU216DAVISVP2,2012-06-18 23:06:00,
2012-06-18 16:11:00,54.4,50.0,29.94,SW,222,2.0,7.0,85,0.02,,,0.67,WUHU216DAVISVP2,2012-06-18 23:11:00,
2012-06-18 16:16:00,54.4,50.6,29.94,WSW,238,0.0,7.0,87,0.01,,,0.67,WUHU216DAVISVP2,2012-06-18 23:16:00,
2012-06-18 16:21:00,54.4,50.3,29.94,South,174,2.0,7.0,86,0.01,,,0.67,WUHU216DAVISVP2,2012-06-18 23:21:00,
2012-06-18 16:26:00,54.3,50.2,29.94,ESE,122,2.0,7.0,86,0.01,,,0.67,WUHU216DAVISVP2,2012-06-18 23:26:00,
2012-06-18 16:31:00,54.1,50.0,29.94,SSE,150,1.0,6.0,86,0.01,,,0.67,WUHU216DAVISVP2,2012-06-18 23:31:00,
2012-06-18 16:36:00,53.9,49.8,29.94,South,169,2.0,7.0,86,0.01,,,0.67,WUHU216DAVISVP2,2012-06-18 23:36:00,
2012-06-18 16:41:00,53.9,49.5,29.94,SE,129,1.0,7.0,85,0.01,,,0.67,WUHU216DAVISVP2,2012-06-18 23:41:00,
2012-06-18 16:46:00,53.9,49.5,29.94,SSE,167,1.0,7.0,85,0.01,,,0.67,WUHU216DAVISVP2,2012-06-18 23:46:00,
2012-06-18 16:51:00,53.9,49.5,29.94,South,174,1.0,4.0,85,0.01,,,0.67,WUHU216DAVISVP2,2012-06-18 23:51:00,
2012-06-18 16:56:00,54.0,49.3,29.94,SW,217,4.0,5.0,84,0.01,,,0.67,WUHU216DAVISVP2,2012-06-18 23:56:00,
2012-06-18 17:01:00,54.0,49.3,29.94,South,190,1.0,5.0,84,0.01,,,0.67,WUHU216DAVISVP2,2012-06-19 00:01:00,
2012-06-18 17:06:00,54.1,49.4,29.93,SE,134,3.0,5.0,84,0.00,,,0.67,WUHU216DAVISVP2,2012-06-19 00:06:00,
2012-06-18 17:11:00,54.2,49.5,29.93,SE,146,1.0,5.0,84,0.00,,,0.67,WUHU216DAVISVP2,2012-06-19 00:11:00,
2012-06-18 17:16:00,54.3,49.6,29.94,SW,218,1.0,5.0,84,0.00,,,0.67,WUHU216DAVISVP2,2012-06-19 00:16:00,
2012-06-18 17:21:00,54.7,50.3,29.93,SSW,207,2.0,5.0,85,0.00,,,0.67,WUHU216DAVISVP2,2012-06-19 00:21:00,
2012-06-18 17:26:00,55.0,49.6,29.94,SSW,211,2.0,6.0,82,0.00,,,0.67,WUHU216DAVISVP2,2012-06-19 00:26:00,
2012-06-18 17:31:00,55.1,50.0,29.94,SW,218,3.0,7.0,83,0.00,,,0.67,WUHU216DAVISVP2,2012-06-19 00:31:00,
2012-06-18 17:36:00,55.0,49.6,29.93,SW,229,1.0,7.0,82,0.00,,,0.67,WUHU216DAVISVP2,2012-06-19 00:36:00,
2012-06-18 17:41:00,54.9,49.2,29.93,SSE,149,2.0,7.0,81,0.00,,,0.67,WUHU216DAVISVP2,2012-06-19 00:41:00,
2012-06-18 17:46:00,54.9,48.9,29.93,SW,218,1.0,7.0,80,0.00,,,0.67,WUHU216DAVISVP2,2012-06-19 00:46:00,
2012-06-18 17:51:00,54.7,48.7,29.93,South,170,0.0,6.0,80,0.00,,,0.67,WUHU216DAVISVP2,2012-06-19 00:51:00,
2012-06-18 17:56:00,54.6,48.9,29.93,SSE,153,2.0,7.0,81,0.00,,,0.67,WUHU216DAVISVP2,2012-06-19 00:56:00,
2012-06-18 18:01:00,54.7,49.0,29.94,South,174,5.0,7.0,81,0.00,,,0.67,WUHU216DAVISVP2,2012-06-19 01:01:00,
2012-06-18 18:06:00,54.7,49.0,29.94,SSW,205,3.0,7.0,81,0.00,,,0.67,WUHU216DAVISVP2,2012-06-19 01:06:00,
2012-06-18 18:11:00,54.6,48.9,29.94,SSW,193,2.0,7.0,81,0.00,,,0.67,WUHU216DAVISVP2,2012-06-19 01:11:00,
2012-06-18 18:16:00,54.6,48.9,29.94,SSW,204,1.0,7.0,81,0.00,,,0.67,WUHU216DAVISVP2,2012-06-19 01:16:00,
2012-06-18 18:21:00,54.7,49.0,29.94,SE,130,1.0,7.0,81,0.00,,,0.67,WUHU216DAVISVP2,2012-06-19 01:21:00,
2012-06-18 18:26:00,54.6,49.2,29.94,SSE,162,0.0,7.0,82,0.00,,,0.67,WUHU216DAVISVP2,2012-06-19 01:26:00,
2012-06-18 18:31:00,54.6,49.2,29.94,South,188,3.0,6.0,82,0.00,,,0.67,WUHU216DAVISVP2,2012-06-19 01:31:00,
2012-06-18 18:36:00,54.6,48.9,29.94,SE,132,4.0,6.0,81,0.00,,,0.67,WUHU216DAVISVP2,2012-06-19 01:36:00,
2012-06-18 18:41:00,54.5,49.1,29.94,SSW,208,3.0,6.0,82,0.00,,,0.67,WUHU216DAVISVP2,2012-06-19 01:41:00,
2012-06-18 18:46:00,54.4,49.4,29.94,SW,226,0.0,6.0,83,0.00,,,0.67,WUHU216DAVISVP2,2012-06-19 01:46:00,
2012-06-18 18:51:00,54.4,49.0,29.94,SW,232,1.0,5.0,82,0.00,,,0.67,WUHU216DAVISVP2,2012-06-19 01:51:00,
2012-06-18 18:56:00,54.3,49.3,29.94,South,174,1.0,5.0,83,0.00,,,0.67,WUHU216DAVISVP2,2012-06-19 01:56:00,
2012-06-18 19:01:00,54.3,49.3,29.94,SW,231,1.0,5.0,83,0.00,,,0.67,WUHU216DAVISVP2,2012-06-19 02:01:00,
2012-06-18 19:06:00,54.2,49.5,29.95,SE,131,3.0,4.0,84,0.00,,,0.67,WUHU216DAVISVP2,2012-06-19 02:06:00,
2012-06-18 19:11:00,54.2,49.5,29.95,SE,136,0.0,4.0,84,0.00,,,0.67,WUHU216DAVISVP2,2012-06-19 02:11:00,
2012-06-18 19:16:00,54.1,49.4,29.95,WSW,245,0.0,4.0,84,0.00,,,0.67,WUHU216DAVISVP2,2012-06-19 02:16:00,
2012-06-18 19:21:00,54.1,49.4,29.95,SSW,208,1.0,4.0,84,0.00,,,0.67,WUHU216DAVISVP2,2012-06-19 02:21:00,
2012-06-18 19:26:00,54.1,49.4,29.95,SSW,211,3.0,5.0,84,0.00,,,0.67,WUHU216DAVISVP2,2012-06-19 02:26:00,
2012-06-18 19:31:00,54.2,49.5,29.95,South,190,2.0,5.0,84,0.00,,,0.67,WUHU216DAVISVP2,2012-06-19 02:31:00,
2012-06-18 19:36:00,54.2,49.2,29.95,SSE,150,1.0,5.0,83,0.00,,,0.67,WUHU216DAVISVP2,2012-06-19 02:36:00,
2012-06-18 19:41:00,54.3,48.9,29.95,WSW,251,1.0,5.0,82,0.00,,,0.67,WUHU216DAVISVP2,2012-06-19 02:41:00,
2012-06-18 19:46:00,54.4,49.0,29.95,SE,136,1.0,5.0,82,0.00,,,0.67,WUHU216DAVISVP2,2012-06-19 02:46:00,
2012-06-18 19:51:00,54.4,49.0,29.96,SW,214,0.0,5.0,82,0.00,,,0.67,WUHU216DAVISVP2,2012-06-19 02:51:00,
2012-06-18 19:56:00,54.4,49.0,29.96,South,169,1.0,5.0,82,0.00,,,0.67,WUHU216DAVISVP2,2012-06-19 02:56:00,
2012-06-18 20:01:00,54.4,49.0,29.96,SSW,212,0.0,5.0,82,0.00,,,0.67,WUHU216DAVISVP2,2012-06-19 03:01:00,
2012-06-18 20:06:00,54.5,48.8,29.96,SSW,211,2.0,6.0,81,0.00,,,0.67,WUHU216DAVISVP2,2012-06-19 03:06:00,
2012-06-18 20:11:00,54.4,48.4,29.96,SSW,198,3.0,8.0,80,0.00,,,0.67,WUHU216DAVISVP2,2012-06-19 03:11:00,
2012-06-18 20:16:00,54.4,48.1,29.96,South,174,3.0,8.0,79,0.00,,,0.67,WUHU216DAVISVP2,2012-06-19 03:16:00,
2012-06-18 20:21:00,54.3,48.0,29.96,SSE,150,0.0,8.0,79,0.00,,,0.67,WUHU216DAVISVP2,2012-06-19 03:21:00,
2012-06-18 20:26:00,54.2,47.9,29.96,ESE,120,1.0,8.0,79,0.00,,,0.67,WUHU216DAVISVP2,2012-06-19 03:26:00,
2012-06-18 20:31:00,54.0,48.0,29.96,SSW,195,0.0,7.0,80,0.00,,,0.67,WUHU216DAVISVP2,2012-06-19 03:31:00,
2012-06-18 20:36:00,53.8,47.5,29.96,SSE,149,2.0,7.0,79,0.00,,,0.67,WUHU216DAVISVP2,2012-06-19 03:36:00,
2012-06-18 20:41:00,53.6,47.3,29.96,WSW,238,5.0,6.0,79,0.00,,,0.67,WUHU216DAVISVP2,2012-06-19 03:41:00,
2012-06-18 20:46:00,53.4,46.8,29.96,SE,127,2.0,7.0,78,0.00,,,0.67,WUHU216DAVISVP2,2012-06-19 03:46:00,
2012-06-18 20:51:00,53.3,47.0,29.96,SSW,212,2.0,7.0,79,0.00,,,0.67,WUHU216DAVISVP2,2012-06-19 03:51:00,
2012-06-18 20:56:00,53.0,46.4,29.96,SW,224,4.0,7.0,78,0.00,,,0.67,WUHU216DAVISVP2,2012-06-19 03:56:00,
2012-06-18 21:00:00,52.9,46.6,29.97,WSW,253,1.0,7.0,79,0.00,,,0.67,WUHU216DAVISVP2,2012-06-19 04:00:00,
2012-06-18 21:05:00,52.7,46.4,29.97,SW,221,0.0,7.0,79,0.00,,,0.67,WUHU216DAVISVP2,2012-06-19 04:05:00,
2012-06-18 21:10:00,52.5,46.2,29.97,SSW,201,1.0,7.0,79,0.00,,,0.67,WUHU216DAVISVP2,2012-06-19 04:10:00,
2012-06-18 21:15:00,52.3,46.0,29.97,SE,136,1.0,7.0,79,0.00,,,0.67,WUHU216DAVISVP2,2012-06-19 04:15:00,
2012-06-18 21:20:00,52.2,46.3,29.97,SSW,212,0.0,6.0,80,0.00,,,0.67,WUHU216DAVISVP2,2012-06-19 04:20:00,
2012-06-18 21:25:00,52.0,46.1,29.97,SSW,212,3.0,6.0,80,0.00,,,0.67,WUHU216DAVISVP2,2012-06-19 04:25:00,
2012-06-18 21:30:00,51.9,46.0,29.97,South,170,0.0,6.0,80,0.00,,,0.67,WUHU216DAVISVP2,2012-06-19 04:30:00,
2012-06-18 21:35:00,51.8,45.9,29.97,SSW,203,0.0,6.0,80,0.00,,,0.67,WUHU216DAVISVP2,2012-06-19 04:35:00,
2012-06-18 21:40:00,51.7,46.1,29.97,SW,215,3.0,6.0,81,0.00,,,0.67,WUHU216DAVISVP2,2012-06-19 04:40:00,
2012-06-18 21:45:00,51.7,45.8,29.98,SSW,207,2.0,8.0,80,0.00,,,0.67,WUHU216DAVISVP2,2012-06-19 04:45:00,
2012-06-18 21:50:00,51.5,45.6,29.98,SW,214,0.0,8.0,80,0.00,,,0.67,WUHU216DAVISVP2,2012-06-19 04:50:00,
2012-06-18 21:55:00,51.4,45.8,29.98,SSW,203,0.0,8.0,81,0.00,,,0.67,WUHU216DAVISVP2,2012-06-19 04:55:00,
2012-06-18 22:00:00,51.3,46.0,29.98,South,186,0.0,8.0,82,0.00,,,0.67,WUHU216DAVISVP2,2012-06-19 05:00:00,
2012-06-18 22:05:00,51.1,45.8,29.98,SSW,208,4.0,6.0,82,0.00,,,0.67,WUHU216DAVISVP2,2012-06-19 05:05:00,
2012-06-18 22:10:00,51.1,45.5,29.98,SE,146,0.0,6.0,81,0.00,,,0.67,WUHU216DAVISVP2,2012-06-19 05:10:00,
2012-06-18 22:15:00,50.9,45.6,29.98,SE,138,1.0,6.0,82,0.00,,,0.67,WUHU216DAVISVP2,2012-06-19 05:15:00,
2012-06-18 22:20:00,50.8,45.5,29.99,South,172,1.0,6.0,82,0.00,,,0.67,WUHU216DAVISVP2,2012-06-19 05:20:00,
2012-06-18 22:25:00,50.8,45.5,29.98,SW,228,3.0,5.0,82,0.00,,,0.67,WUHU216DAVISVP2,2012-06-19 05:25:00,
2012-06-18 22:30:00,50.7,45.4,29.99,SSW,207,2.0,5.0,82,0.00,,,0.67,WUHU216DAVISVP2,2012-06-19 05:30:00,
2012-06-18 22:35:00,50.6,45.6,29.99,SW,214,0.0,5.0,83,0.00,,,0.67,WUHU216DAVISVP2,2012-06-19 05:35:00,
2012-06-18 22:40:00,50.7,45.7,29.99,SSE,147,4.0,5.0,83,0.00,,,0.67,WUHU216DAVISVP2,2012-06-19 05:40:00,
2012-06-18 22:45:00,50.8,45.8,29.99,SSE,165,1.0,7.0,83,0.00,,,0.67,WUHU216DAVISVP2,2012-06-19 05:45:00,
2012-06-18 22:50:00,50.6,45.6,29.99,SW,214,3.0,7.0,83,0.00,,,0.67,WUHU216DAVISVP2,2012-06-19 05:50:00,
2012-06-18 22:55:00,50.6,45.6,29.99,SSE,149,3.0,7.0,83,0.00,,,0.67,WUHU216DAVISVP2,2012-06-19 05:55:00,
2012-06-18 23:00:00,50.6,45.6,29.99,WSW,248,4.0,7.0,83,0.00,,,0.67,WUHU216DAVISVP2,2012-06-19 06:00:00,
2012-06-18 23:05:00,50.5,45.5,29.99,South,188,4.0,6.0,83,0.00,,,0.67,WUHU216DAVISVP2,2012-06-19 06:05:00,
2012-06-18 23:10:00,50.4,45.4,30.00,SW,231,3.0,8.0,83,0.00,,,0.67,WUHU216DAVISVP2,2012-06-19 06:10:00,
2012-06-18 23:15:00,50.4,45.4,29.99,South,181,1.0,8.0,83,0.00,,,0.67,WUHU216DAVISVP2,2012-06-19 06:15:00,
2012-06-18 23:20:00,50.2,45.2,30.00,South,184,5.0,8.0,83,0.00,,,0.67,WUHU216DAVISVP2,2012-06-19 06:20:00,
2012-06-18 23:25:00,50.2,45.2,30.00,SSW,201,3.0,9.0,83,0.00,,,0.67,WUHU216DAVISVP2,2012-06-19 06:25:00,
2012-06-18 23:30:00,50.2,45.2,30.00,South,180,0.0,9.0,83,0.00,,,0.67,WUHU216DAVISVP2,2012-06-19 06:30:00,
2012-06-18 23:35:00,50.2,45.2,30.00,WSW,246,3.0,9.0,83,0.00,,,0.67,WUHU216DAVISVP2,2012-06-19 06:35:00,
2012-06-18 23:40:00,50.1,45.1,30.00,SSW,201,3.0,5.0,83,0.00,,,0.67,WUHU216DAVISVP2,2012-06-19 06:40:00,
2012-06-18 23:45:00,50.1,45.1,30.00,SSW,200,0.0,5.0,83,0.00,,,0.67,WUHU216DAVISVP2,2012-06-19 06:45:00,
2012-06-18 23:50:00,50.0,45.0,30.00,SW,226,0.0,5.0,83,0.00,,,0.67,WUHU216DAVISVP2,2012-06-19 06:50:00,
2012-06-18 23:55:00,50.0,45.0,30.00,SW,222,2.0,5.0,83,0.00,,,0.67,WUHU216DAVISVP2,2012-06-19 06:55:00,